Location: Bronnegerveen
(52.9548°N, 6.8388°E)
Time: 02:53:54
(UTC+00:00)

Cosmos 2082 Rocket - Pass Details

Date: 15 June 2025
Orbit: 831 x 854 km, 71.0° (Epoch: 07 July)

Event Time Altitude Azimuth Distance (km) Brightness Sun altitude
Rises 23:59:40 0° 328° (NNW) 3,417 6.2 -13.5°
Reaches altitude 10° 00:02:23 10° 338° (NNW) 2,482 5.6 -13.5°
Maximum altitude 00:07:30 33° 42° (NE) 1,409 4.0 -13.4°
Drops below altitude 10° 00:12:36 10° 105° (ESE) 2,483 4.6 -13.3°
Sets 00:15:19 0° 115° (ESE) 3,417 5.2 -13.2°
